Time,TemperatureF,DewpointF,PressureIn,WindDirection,WindDirectionDegrees,WindSpeedMPH,WindSpeedGustMPH,Humidity,HourlyPrecipIn,Conditions,Clouds,dailyrainin,SoftwareType,DateUTC
2013-08-22 00:23:00,69.0,66.0,-100.00,SSE,165,7.0,10.0,88,-99.99,,,-99.99,,2013-08-22 04:23:00,
2013-08-22 00:54:00,69.0,66.0,-100.00,South,185,6.0,9.0,88,-99.99,,,-99.99,,2013-08-22 04:54:00,
2013-08-22 01:22:00,69.0,65.0,-100.00,SSW,205,6.0,9.0,85,-99.99,,,-99.99,,2013-08-22 05:22:00,
2013-08-22 01:52:00,70.0,65.0,-100.00,SSW,205,6.0,9.0,83,-99.99,,,-99.99,,2013-08-22 05:52:00,
2013-08-22 02:22:00,70.0,65.0,-100.00,SSW,200,6.0,9.0,83,-99.99,,,-99.99,,2013-08-22 06:22:00,
2013-08-22 02:52:00,70.0,64.0,-100.00,SSW,195,7.0,9.0,83,-99.99,,,-99.99,,2013-08-22 06:52:00,
2013-08-22 03:22:00,69.0,64.0,-100.00,WSW,255,6.0,9.0,85,-99.99,,,-99.99,,2013-08-22 07:22:00,
2013-08-22 03:52:00,69.0,64.0,-100.00,SSW,200,7.0,12.0,86,-99.99,,,-99.99,,2013-08-22 07:52:00,
2013-08-22 04:22:00,70.0,65.0,-100.00,SSW,210,6.0,12.0,85,-99.99,,,-99.99,,2013-08-22 08:22:00,
2013-08-22 04:53:00,70.0,65.0,-100.00,WSW,245,6.0,11.0,86,-99.99,,,-99.99,,2013-08-22 08:53:00,
2013-08-22 05:22:00,69.0,66.0,-100.00,SW,235,6.0,12.0,88,-99.99,,,-99.99,,2013-08-22 09:22:00,
2013-08-22 05:53:00,70.0,66.0,-100.00,SSW,195,7.0,12.0,88,-99.99,,,-99.99,,2013-08-22 09:53:00,
2013-08-22 06:23:00,70.0,67.0,-100.00,SW,235,5.0,9.0,88,-99.99,,,-99.99,,2013-08-22 10:23:00,
2013-08-22 08:52:00,72.0,68.0,-100.00,West,270,4.0,6.0,86,-99.99,,,-99.99,,2013-08-22 12:52:00,
2013-08-22 09:22:00,73.0,69.0,-100.00,West,265,4.0,7.0,85,-99.99,,,-99.99,,2013-08-22 13:22:00,
2013-08-22 09:52:00,75.0,69.0,-100.00,SW,215,3.0,6.0,81,-99.99,,,-99.99,,2013-08-22 13:52:00,
2013-08-22 10:22:00,77.0,70.0,-100.00,West,275,4.0,7.0,78,-99.99,,,-99.99,,2013-08-22 14:22:00,
2013-08-22 10:52:00,79.0,70.0,-100.00,SW,235,4.0,10.0,74,-99.99,,,-99.99,,2013-08-22 14:52:00,
2013-08-22 11:22:00,80.0,71.0,-100.00,West,260,8.0,12.0,72,-99.99,,,-99.99,,2013-08-22 15:22:00,
2013-08-22 11:34:00,80.0,71.0,-100.00,West,260,8.0,12.0,72,-99.99,,,-99.99,,2013-08-22 15:34:00,
2013-08-22 11:54:00,81.0,71.0,-100.00,West,280,9.0,17.0,71,-99.99,,,-99.99,,2013-08-22 15:54:00,
2013-08-22 12:25:00,82.0,71.0,-100.00,West,270,12.0,15.0,67,-99.99,,,-99.99,,2013-08-22 16:25:00,
2013-08-22 12:54:00,84.0,71.0,-100.00,West,275,9.0,15.0,64,-99.99,,,-99.99,,2013-08-22 16:54:00,
2013-08-22 13:24:00,84.0,71.0,-100.00,WNW,295,9.0,13.0,64,-99.99,,,-99.99,,2013-08-22 17:24:00,
2013-08-22 13:53:00,84.0,70.0,-100.00,WNW,290,7.0,13.0,62,-99.99,,,-99.99,,2013-08-22 17:53:00,
2013-08-22 14:02:00,84.0,70.0,-100.00,WNW,290,7.0,13.0,62,-99.99,,,-99.99,,2013-08-22 18:02:00,
2013-08-22 14:22:00,83.0,69.0,-100.00,West,280,11.0,14.0,62,-99.99,,,-99.99,,2013-08-22 18:22:00,
2013-08-22 14:52:00,82.0,69.0,-100.00,WNW,285,11.0,14.0,64,-99.99,,,-99.99,,2013-08-22 18:52:00,
2013-08-22 15:22:00,82.0,70.0,-100.00,WNW,285,12.0,14.0,67,-99.99,,,-99.99,,2013-08-22 19:22:00,
2013-08-22 15:53:00,83.0,70.0,-100.00,WNW,290,12.0,14.0,64,-99.99,,,-99.99,,2013-08-22 19:53:00,
2013-08-22 16:23:00,83.0,71.0,-100.00,WNW,295,10.0,13.0,67,-99.99,,,-99.99,,2013-08-22 20:23:00,
2013-08-22 16:52:00,82.0,71.0,-100.00,WNW,300,9.0,13.0,68,-99.99,,,-99.99,,2013-08-22 20:52:00,
2013-08-22 17:03:00,82.0,71.0,-100.00,WNW,300,9.0,13.0,68,-99.99,,,-99.99,,2013-08-22 21:03:00,
2013-08-22 17:22:00,82.0,71.0,-100.00,WNW,285,9.0,11.0,70,-99.99,,,-99.99,,2013-08-22 21:22:00,
2013-08-22 17:54:00,80.0,71.0,-100.00,West,280,7.0,10.0,73,-99.99,,,-99.99,,2013-08-22 21:54:00,
2013-08-22 18:25:00,78.0,73.0,-100.00,NW,310,6.0,9.0,82,-99.99,,,-99.99,,2013-08-22 22:25:00,
2013-08-22 18:53:00,76.0,72.0,-100.00,WNW,290,10.0,12.0,88,-99.99,,,-99.99,,2013-08-22 22:53:00,
2013-08-22 19:23:00,74.0,70.0,-100.00,NW,305,11.0,17.0,87,-99.99,,,-99.99,,2013-08-22 23:23:00,
2013-08-22 19:42:00,73.0,70.0,-100.00,NW,305,17.0,24.0,88,-99.99,,,-99.99,,2013-08-22 23:42:00,
2013-08-22 19:52:00,72.0,69.0,-100.00,NW,315,9.0,17.0,90,-99.99,,,-99.99,,2013-08-22 23:52:00,
2013-08-22 20:23:00,71.0,69.0,-100.00,NW,315,6.0,8.0,92,-99.99,,,-99.99,,2013-08-23 00:23:00,
2013-08-22 20:52:00,71.0,69.0,-100.00,North,10,5.0,10.0,92,-99.99,,,-99.99,,2013-08-23 00:52:00,
2013-08-22 21:21:00,71.0,70.0,-100.00,ENE,70,1.0,6.0,95,-99.99,,,-99.99,,2013-08-23 01:21:00,
2013-08-22 21:52:00,71.0,69.0,-100.00,NNE,15,4.0,6.0,95,-99.99,,,-99.99,,2013-08-23 01:52:00,
2013-08-22 22:23:00,71.0,69.0,-100.00,North,10,3.0,6.0,95,-99.99,,,-99.99,,2013-08-23 02:23:00,
2013-08-22 22:52:00,71.0,69.0,-100.00,NE,35,4.0,4.0,95,-99.99,,,-99.99,,2013-08-23 02:52:00,
2013-08-22 23:23:00,71.0,70.0,-100.00,SW,220,4.0,6.0,96,-99.99,,,-99.99,,2013-08-23 03:23:00,
2013-08-22 23:55:00,70.0,69.0,-100.00,West,270,11.0,13.0,96,-99.99,,,-99.99,,2013-08-23 03:55:00,